Location: Oroua River
(40.4333°S, 175.4333°E)
Time: 14:17:41
(UTC+00:00)

Cosmos 1269 Rocket - Pass Details

Date: 03 February 2023
Orbit: 771 x 779 km, 74.1° (Epoch: 22 March)

Event Time Altitude Azimuth Distance (km) Brightness Sun altitude
Exits shadow 16:40:12 - 331° (NNW) 2,565 6.2 -9.1°
Reaches altitude 10° 16:40:49 10° 330° (NNW) 2,331 6.0 -9.0°
Maximum altitude 16:46:04 62° 249° (WSW) 884 4.2 -8.2°
Drops below altitude 10° 16:51:23 10° 167° (SSE) 2,356 7.2 -7.3°
Sets 16:53:49 0° 164° (SSE) 3,289 8.0 -6.9°
